sat.trackr.live / text

‹ back to catalog

ONEWEB-0668

NORAD 56711 · 2023-068B

PAYLOAD ACTIVE UNKNOWN

§ Identity

Operator
Country
UK
Launch date
2023-05-20
Launch site
AFWTR
Launch vehicle
Mass (kg)
RCS (m²)

Purposes: comms

External: N2YO · Heavens-Above · Gunter

§ Orbital elements

Epoch: 2026-05-25T04:10:19.508160Z

Period
109.37 min
Inclination
87.9111°
Eccentricity
0.0002288
Mean motion
13.16593211 rev/d
Perigee alt
1,196.0 km
Apogee alt
1,199.5 km
Semi-major
7,575.9 km
B*
2.2363e-4
RAAN
233.3409°
Arg perigee
112.8400°
Mean anomaly
247.2972°
Rev number
14,875

§ Raw data

ONEWEB-06681 56711U 23068B   26145.17383690  .00000098  00000+0  22363-3 0  99992 56711  87.9111 233.3409 0002288 112.8400 247.2972 13.16593211148759

JSON: /api/v1/satellites/56711 · /tle

For live sub-satellite position, see the globe view (requires WebGL).

§ Visibility from observer

Set your observer location to see the next 7 days of passes ≥ 10°. The values pass through the URL so the page stays shareable.

No JS? Fill the form by hand. The geolocation button needs JavaScript.